AA7DG Weather Reports


Display with metric or nautical units.
time (UTC)temp
F
wind
direction
speed
MPH
gust
MPH
rain 1hr
in
rain 24hr
in
rain mn
in
humidity
%
barometer
mb
20260505090002 52 87 0.0 1.0 0.00 0.00 0.00 72 1011.9
20260505085501 52 87 0.0 0.0 0.00 0.00 0.00 71 1011.9
20260505085001 52 86 0.0 1.0 0.00 0.00 0.00 71 1011.9
20260505084506 53 91 0.0 0.0 0.00 0.00 0.00 71 1011.9
20260505084001 53 53 0.0 2.0 0.00 0.00 0.00 70 1011.8
20260505083001 53 79 0.0 0.0 0.00 0.00 0.00 69 1011.8
20260505082501 53 81 0.0 0.0 0.00 0.00 0.00 69 1011.8
20260505082000 53 82 0.0 1.0 0.00 0.00 0.00 69 1011.8
20260505081501 54 81 0.0 0.0 0.00 0.00 0.00 69 1011.5
20260505081017 54 71 0.0 1.0 0.00 0.00 0.00 68 1011.5
20260505080504 54 31 1.0 2.0 0.00 0.00 0.00 68 1011.5
20260505080001 54 37 1.0 2.0 0.00 0.00 0.00 68 1011.5
20260505075501 54 38 0.0 2.0 0.00 0.00 0.00 67 1011.5
20260505075001 54 186 0.0 0.0 0.00 0.00 0.00 66 1011.4
20260505074501 54 186 0.0 0.0 0.00 0.00 0.00 66 1011.2
20260505074000 55 177 0.0 1.0 0.00 0.00 0.00 66 1011.3
20260505073501 55 138 0.0 1.0 0.00 0.00 0.00 65 1011.2
20260505073005 56 65 0.0 1.0 0.00 0.00 0.00 63 1011.2
20260505072501 56 70 0.0 1.0 0.00 0.00 0.00 64 1011.2
20260505071501 56 82 0.0 1.0 0.00 0.00 0.00 62 1011.2
20260505071012 56 82 0.0 1.0 0.00 0.00 0.00 62 1011.0
20260505070507 57 57 0.0 1.0 0.00 0.00 0.00 63 1010.8
20260505070001 57 55 0.0 1.0 0.00 0.00 0.00 62 1010.8
20260505065501 57 54 0.0 1.0 0.00 0.00 0.00 62 1010.8
20260505065002 57 55 0.0 1.0 0.00 0.00 0.00 61 1010.8
20260505064502 57 54 1.0 1.0 0.00 0.00 0.00 61 1010.8
20260505064006 57 54 0.0 1.0 0.00 0.00 0.00 60 1010.8
20260505063001 57 69 0.0 2.0 0.00 0.00 0.00 61 1010.8
20260505062501 57 110 0.0 1.0 0.00 0.00 0.00 62 1010.8
20260505061505 58 119 0.0 1.0 0.00 0.00 0.00 60 1010.8
20260505061011 59 63 0.0 1.0 0.00 0.00 0.00 58 1010.8
20260505060501 59 66 0.0 1.0 0.00 0.00 0.00 58 1010.8
20260505060001 59 117 0.0 0.0 0.00 0.00 0.00 57 1010.5
20260505055502 59 117 0.0 1.0 0.00 0.00 0.00 58 1010.5
20260505055012 59 116 0.0 1.0 0.00 0.00 0.00 58 1010.5
20260505054506 59 113 1.0 1.0 0.00 0.00 0.00 57 1010.5
20260505054000 60 140 1.0 2.0 0.00 0.00 0.00 56 1010.5
20260505053502 61 198 0.0 1.0 0.00 0.00 0.00 54 1010.5
20260505053002 61 47 1.0 2.0 0.00 0.00 0.00 52 1010.5
20260505052500 61 45 1.0 2.0 0.00 0.00 0.00 52 1010.5
20260505052001 61 58 0.0 2.0 0.00 0.00 0.00 52 1010.3
20260505051502 62 89 0.0 0.0 0.00 0.00 0.00 52 1010.2
20260505051002 62 88 0.0 1.0 0.00 0.00 0.00 50 1010.2
20260505050501 62 89 0.0 1.0 0.00 0.00 0.00 50 1010.2
20260505041506 65 10 0.0 0.0 0.00 0.00 0.00 45 1009.5
20260505041001 66 10 0.0 0.0 0.00 0.00 0.00 45 1009.5
20260505040501 66 10 0.0 0.0 0.00 0.00 0.00 43 1009.5
20260505040001 67 10 0.0 0.0 0.00 0.00 0.00 43 1009.4
20260505035006 68 10 0.0 0.0 0.00 0.00 0.00 39 1009.1
20260505034501 68 10 0.0 1.0 0.00 0.00 0.00 38 1009.1
20260505034001 69 10 1.0 1.0 0.00 0.00 0.00 37 1009.1
20260505033501 69 10 1.0 2.0 0.00 0.00 0.00 36 1009.1
20260505033001 70 16 0.0 1.0 0.00 0.00 0.00 35 1009.1
20260505032501 70 46 0.0 1.0 0.00 0.00 0.00 35 1009.1
20260505032007 71 46 0.0 0.0 0.00 0.00 0.00 35 1008.8
20260505031506 72 46 1.0 1.0 0.00 0.00 0.00 33 1008.8
20260505031001 72 100 0.0 1.0 0.00 0.00 0.00 33 1008.8
20260505030501 73 114 0.0 1.0 0.00 0.00 0.00 32 1008.8
20260505025502 74 58 0.0 1.0 0.00 0.00 0.00 30 1008.6
20260505025004 75 57 1.0 2.0 0.00 0.00 0.00 29 1008.5
20260505024505 75 111 2.0 5.0 0.00 0.00 0.00 28 1008.5
20260505024007 76 64 2.0 4.0 0.00 0.00 0.00 28 1008.5
20260505023506 76 61 1.0 4.0 0.00 0.00 0.00 28 1008.5
20260505023001 76 68 1.0 4.0 0.00 0.00 0.00 27 1008.5
20260505022500 76 69 1.0 2.0 0.00 0.00 0.00 27 1008.5
20260505022006 77 87 1.0 5.0 0.00 0.00 0.00 27 1008.5
20260505021506 77 55 1.0 3.0 0.00 0.00 0.00 27 1008.5
20260505021010 78 21 1.0 4.0 0.00 0.00 0.00 27 1008.5
20260505020501 78 50 1.0 4.0 0.00 0.00 0.00 26 1008.5
20260505020001 78 75 2.0 4.0 0.00 0.00 0.00 26 1008.5
20260505015501 78 47 3.0 5.0 0.00 0.00 0.00 26 1008.3
20260505015001 78 40 2.0 4.0 0.00 0.00 0.00 26 1008.2
20260505014502 78 23 3.0 7.0 0.00 0.00 0.00 26 1008.1
20260505014019 78 9 2.0 4.0 0.00 0.00 0.00 25 1008.2
20260505013501 78 24 3.0 5.0 0.00 0.00 0.00 25 1008.5
20260505012505 78 10 2.0 6.0 0.00 0.00 0.00 26 1008.5
20260505012001 78 7 3.0 7.0 0.00 0.00 0.00 25 1008.5
20260505011507 79 5 3.0 7.0 0.00 0.00 0.00 26 1008.5
20260505011005 79 29 3.0 6.0 0.00 0.00 0.00 25 1008.5
20260505010502 79 39 3.0 5.0 0.00 0.00 0.00 25 1008.5
20260505010002 80 20 2.0 5.0 0.00 0.00 0.00 25 1008.5
20260505005512 80 26 2.0 4.0 0.00 0.00 0.00 26 1008.5
20260505005001 79 349 2.0 4.0 0.00 0.00 0.00 26 1008.5
20260505004506 79 347 3.0 5.0 0.00 0.00 0.00 25 1008.5
20260505004001 80 351 3.0 6.0 0.00 0.00 0.00 25 1008.5
20260505003501 80 343 2.0 3.0 0.00 0.00 0.00 26 1008.5
20260505003006 79 30 2.0 4.0 0.00 0.00 0.00 26 1008.5
20260505002501 79 114 2.0 4.0 0.00 0.00 0.00 25 1008.5
20260505002008 79 43 1.0 2.0 0.00 0.00 0.00 26 1008.5
20260505001507 78 355 3.0 7.0 0.00 0.00 0.00 26 1008.5
20260505001001 78 355 3.0 6.0 0.00 0.00 0.00 26 1008.5
20260505000517 78 17 2.0 5.0 0.00 0.00 0.00 26 1008.5
20260505000000 78 20 1.0 5.0 0.00 0.00 0.00 26 1008.5
20260504235506 78 352 2.0 3.0 0.00 0.00 0.00 26 1008.5
20260504235008 79 2 3.0 4.0 0.00 0.00 0.00 26 1008.5
20260504234501 79 360 3.0 4.0 0.00 0.00 0.00 25 1008.5
20260504234016 79 3 3.0 6.0 0.00 0.00 0.00 25 1008.5
20260504233501 80 8 3.0 6.0 0.00 0.00 0.00 24 1008.5
20260504233001 81 8 3.0 5.0 0.00 0.00 0.00 24 1008.6
20260504232506 81 115 1.0 2.0 0.00 0.00 0.00 24 1008.7
20260504232000 80 49 2.0 5.0 0.00 0.00 0.00 24 1008.8
20260504231501 80 18 3.0 7.0 0.00 0.00 0.00 24 1008.8
20260504231006 80 25 3.0 8.0 0.00 0.00 0.00 24 1008.8
20260504230502 80 358 4.0 7.0 0.00 0.00 0.00 23 1008.8
20260504230001 81 25 4.0 8.0 0.00 0.00 0.00 23 1008.8
20260504225501 81 20 4.0 7.0 0.00 0.00 0.00 23 1008.8
20260504225001 81 41 3.0 9.0 0.00 0.00 0.00 22 1008.8
20260504224505 82 2 4.0 7.0 0.00 0.00 0.00 22 1008.8
20260504224001 83 64 2.0 4.0 0.00 0.00 0.00 22 1008.8
20260504223501 82 38 2.0 4.0 0.00 0.00 0.00 22 1008.8
20260504223001 81 4 3.0 7.0 0.00 0.00 0.00 23 1008.8
20260504222507 81 329 3.0 5.0 0.00 0.00 0.00 23 1008.8
20260504222001 81 17 4.0 7.0 0.00 0.00 0.00 23 1008.8
20260504221515 80 8 2.0 5.0 0.00 0.00 0.00 23 1008.8
20260504221001 80 6 5.0 8.0 0.00 0.00 0.00 23 1008.8
20260504220506 81 9 3.0 8.0 0.00 0.00 0.00 22 1008.8
20260504220000 81 9 3.0 8.0 0.00 0.00 0.00 22 1008.8
20260504215501 80 3 3.0 6.0 0.00 0.00 0.00 22 1008.8
20260504215001 80 7 4.0 8.0 0.00 0.00 0.00 22 1009.0
20260504214501 80 337 5.0 9.0 0.00 0.00 0.00 22 1009.1
20260504214001 81 30 3.0 7.0 0.00 0.00 0.00 22 1009.1
20260504213505 82 1 4.0 8.0 0.00 0.00 0.00 22 1009.1
20260504213010 81 335 2.0 4.0 0.00 0.00 0.00 22 1009.1
20260504212502 80 29 3.0 5.0 0.00 0.00 0.00 23 1009.1
20260504212006 80 1 4.0 7.0 0.00 0.00 0.00 23 1009.1
20260504211505 80 12 3.0 6.0 0.00 0.00 0.00 23 1009.3
20260504211007 80 15 4.0 7.0 0.00 0.00 0.00 22 1009.3
20260504210502 80 344 4.0 8.0 0.00 0.00 0.00 23 1009.1
20260504210012 80 294 3.0 6.0 0.00 0.00 0.00 22 1009.2
20260504205506 79 312 3.0 6.0 0.00 0.00 0.00 24 1009.5
20260504205001 79 325 6.0 11.0 0.00 0.00 0.00 23 1009.5
20260504204502 79 343 4.0 7.0 0.00 0.00 0.00 23 1009.5
20260504204007 79 353 3.0 5.0 0.00 0.00 0.00 23 1009.5
20260504203502 80 330 4.0 13.0 0.00 0.00 0.00 23 1009.4
20260504203001 79 29 2.0 7.0 0.00 0.00 0.00 23 1009.4
20260504202517 79 19 4.0 6.0 0.00 0.00 0.00 24 1009.5
20260504202010 80 24 5.0 9.0 0.00 0.00 0.00 23 1009.5
20260504201506 80 79 2.0 5.0 0.00 0.00 0.00 26 1009.5
20260504200501 80 51 2.0 5.0 0.00 0.00 0.00 28 1009.5
20260504200002 79 112 3.0 5.0 0.00 0.00 0.00 28 1009.5
20260504195501 79 120 4.0 7.0 0.00 0.00 0.00 28 1009.5
20260504195001 79 118 4.0 8.0 0.00 0.00 0.00 28 1009.5
20260504194002 78 112 3.0 5.0 0.00 0.00 0.00 27 1009.5
20260504193501 78 65 3.0 8.0 0.00 0.00 0.00 28 1009.6
20260504193002 78 350 3.0 5.0 0.00 0.00 0.00 28 1009.5
20260504192501 78 317 3.0 5.0 0.00 0.00 0.00 28 1009.7
20260504192002 79 327 3.0 6.0 0.00 0.00 0.00 29 1009.8
20260504191501 80 321 2.0 2.0 0.00 0.00 0.00 28 1009.8
20260504191001 80 34 1.0 2.0 0.00 0.00 0.00 29 1009.8
20260504190506 79 38 2.0 6.0 0.00 0.00 0.00 29 1010.0
20260504184501 76 108 2.0 4.0 0.00 0.00 0.00 31 1010.2
20260504184001 76 351 2.0 4.0 0.00 0.00 0.00 32 1010.2
20260504183502 76 22 2.0 5.0 0.00 0.00 0.00 31 1010.2
20260504183002 76 279 2.0 3.0 0.00 0.00 0.00 32 1010.2
20260504182501 76 133 2.0 4.0 0.00 0.00 0.00 31 1010.2
20260504182001 76 67 2.0 4.0 0.00 0.00 0.00 32 1010.2
20260504181506 75 91 1.0 3.0 0.00 0.00 0.00 32 1010.2
20260504181001 74 135 2.0 4.0 0.00 0.00 0.00 33 1010.2
20260504180506 73 337 2.0 4.0 0.00 0.00 0.00 34 1010.2
20260504180002 72 325 2.0 4.0 0.00 0.00 0.00 34 1010.2
20260504175502 72 354 2.0 4.0 0.00 0.00 0.00 35 1010.5
20260504175001 72 350 2.0 5.0 0.00 0.00 0.00 36 1010.5
20260504174501 71 331 2.0 4.0 0.00 0.00 0.00 36 1010.5
20260504174001 71 38 2.0 4.0 0.00 0.00 0.00 38 1010.5
20260504173501 70 334 2.0 4.0 0.00 0.00 0.00 38 1010.5
20260504173006 70 327 2.0 4.0 0.00 0.00 0.00 38 1010.5
20260504172506 69 308 2.0 3.0 0.00 0.00 0.00 39 1010.5
20260504172000 69 317 2.0 4.0 0.00 0.00 0.00 39 1010.5
20260504171501 69 312 2.0 4.0 0.00 0.00 0.00 39 1010.5
20260504171000 68 43 1.0 2.0 0.00 0.00 0.00 41 1010.5
20260504170512 67 320 2.0 3.0 0.00 0.00 0.00 41 1010.5
20260504151011 56 344 1.0 2.0 0.00 0.00 0.00 70 1011.2
20260504150502 55 260 1.0 1.0 0.00 0.00 0.00 72 1011.2
20260504141001 48 128 0.0 0.0 0.00 0.00 0.00 88 1010.9
20260504140501 47 132 0.0 1.0 0.00 0.00 0.00 89 1010.9
20260504130501 45 97 0.0 0.0 0.00 0.00 0.00 90 1010.5
20260504110501 48 313 0.0 0.0 0.00 0.00 0.00 85 1010.2
20260504100511 49 30 0.0 0.0 0.00 0.00 0.00 82 1009.8